Temperature
21 21 21 21 18 18 19 20 20 20 20 20 20 20 19 18 18 17 17 17 17 17 17 17 17 17 17 17 17 17 17 17 17 17 18 17 17 17 17 17 17 17 17 17 17 17 17 17 17
21 21 21 20 18 18 19 19 20 20 21 20 20 19 18 18 18 17 17 17 17 17 17 17 17 17 17 17 17 17 17 17 17 17 17 17 17 17 17 17 17 17 17 17 17 17 17 17 17
21 21 21 18 18 18 19 19 20 21 21 21 20 19 18 18 18 17 17 17 17 17 17 17 17 17 17 17 17 17 17 17 17 17 17 17 17 17 17 17 17 17 17 17 17 17 17 17 17
21 21 21 18 19 19 20 20 20 21 21 20 19 18 18 18 18 18 17 17 18 18 17 17 17 17 17 17 17 17 17 17 17 17 17 17 17 17 17 17 17 17 17 17 17 17 17 17 17
22 21 19 19 20 20 20 20 21 20 20 19 19 17 17 18 18 18 18 18 18 17 17 17 17 17 17 17 17 17 17 17 17 17 17 17 17 17 17 17 17 17 17 17 17 17 17 16 16
22 19 18 19 20 20 20 21 21 20 19 19 18 17 17 18 18 18 18 18 18 18 17 17 17 17 17 17 17 17 17 17 17 17 17 17 17 17 17 17 17 17 17 17 17 17 16 16 16
21 18 19 19 19 20 20 21 21 20 20 19 19 17 17 18 18 18 18 18 17 17 17 17 17 17 17 17 17 17 17 17 17 17 17 17 17 17 17 17 16 16 16 16 16 16 16 16 16
22 18 19 19 19 20 21 21 21 20 20 20 19 18 17 18 18 18 18 18 17 17 17 17 17 17 17 17 17 17 17 17 16 16 16 16 16 16 16 16 16 16 16 16 16 16 16 16 16
22 18 19 20 20 20 21 21 20 20 20 19 19 19 18 18 18 18 18 17 17 17 17 17 17 17 17 17 17 17 16 16 16 16 16 16 16 16 16 16 16 16 16 16 16 16 16 16 16
21 18 19 20 20 20 21 21 20 19 19 18 18 19 18 18 18 18 18 17 17 17 17 17 17 17 17 17 17 17 16 16 16 16 16 16 16 16 16 16 16 16 16 16 16 16 16 16 16
21 19 20 20 21 21 21 21 20 19 18 18 18 18 18 18 18 18 18 18 18 17 17 17 17 17 17 17 17 17 16 16 16 16 16 16 16 16 16 16 16 16 16 16 16 16 16 16 16
20 20 21 21 21 21 21 20 20 20 19 19 19 19 18 18 18 18 18 18 18 17 17 17 17 17 17 17 17 17 17 16 16 16 16 16 16 16 16 16 16 16 16 16 16 16 16 16 16
20 20 21 21 21 21 21 20 20 20 20 19 19 19 18 18 18 18 18 18 18 18 18 17 17 17 17 17 17 17 17 17 16 16 16 16 16 16 16 16 16 16 16 16 16 16 16 16 16
21 21 21 21 21 21 20 20 20 19 19 19 19 19 19 18 18 18 18 18 18 18 18 17 17 17 17 17 17 17 17 17 16 16 16 16 16 16 16 16 16 16 16 16 16 15 15 15 15
21 20 20 20 21 21 20 19 19 19 19 19 19 19 19 19 19 18 18 18 18 18 18 18 17 17 17 17 17 17 17 17 17 16 16 16 16 16 16 16 16 16 16 15 15 15 15 15 15
20 19 19 20 20 21 20 18 19 19 19 19 19 19 19 19 19 19 18 18 18 18 18 18 17 17 17 17 17 17 17 17 17 16 16 16 16 16 16 16 16 15 15 15 15 15 15 15 15
19 18 19 19 20 20 19 18 19 19 19 19 19 19 19 18 18 18 18 18 18 18 18 18 17 17 17 17 17 17 17 16 16 16 16 16 16 16 16 16 15 15 15 15 15 15 15 15 15
19 19 19 19 20 20 19 18 18 19 19 18 18 18 18 18 18 18 18 18 18 18 18 18 17 17 17 17 17 17 17 16 16 16 16 16 16 16 16 15 15 15 15 15 15 15 15 15 15
20 20 19 20 20 20 19 18 18 19 19 18 18 18 18 18 18 18 18 18 18 18 18 18 17 17 17 17 17 17 16 16 16 16 16 16 16 16 16 15 15 15 15 15 15 15 14 14 14
20 20 19 20 21 20 19 18 18 18 18 19 18 18 18 18 18 18 18 18 18 18 18 18 17 17 17 17 17 16 16 16 16 16 16 16 16 16 16 15 15 15 15 15 15 15 14 14 14
20 20 20 20 20 20 19 18 18 18 19 19 19 19 18 18 18 18 18 18 18 18 18 18 17 17 17 17 17 16 16 16 16 16 16 16 16 16 15 15 15 15 15 15 15 14 14 14 14
20 21 21 20 19 18 19 17 17 17 17 18 18 18 18 18 18 18 18 18 18 18 18 18 17 17 17 17 17 16 16 16 16 16 16 16 16 16 15 15 15 15 15 15 15 14 14 14 14
21 21 21 20 19 18 18 17 17 17 17 17 18 18 19 19 19 18 18 18 18 18 18 18 17 17 17 17 17 16 16 16 16 16 16 16 15 15 15 15 15 15 15 15 15 14 14 14 14
22 20 19 18 17 17 18 17 17 16 17 18 18 18 19 19 18 18 18 18 18 18 18 17 17 17 17 17 16 16 16 16 16 16 16 16 15 15 15 15 15 15 15 14 14 14 14 14 14
20 18 17 17 16 17 18 18 17 18 18 18 18 18 19 19 18 18 18 18 18 18 17 17 17 17 17 16 16 16 16 16 16 16 16 15 15 15 15 15 15 15 14 14 14 14 14 14 14
20 18 18 18 17 17 18 18 18 19 19 19 19 19 19 19 18 18 18 18 18 18 17 17 17 17 17 16 16 16 16 16 15 15 15 15 15 15 15 15 15 14 14 14 14 14 14 13 13
21 19 18 17 18 17 17 18 19 19 18 18 18 18 18 19 18 18 18 18 18 17 17 17 17 17 16 16 16 16 16 16 15 15 15 15 15 15 15 15 14 14 14 14 14 14 13 13 13
21 19 17 17 17 17 18 18 17 18 18 18 17 18 18 18 18 18 18 18 18 17 17 17 17 16 16 16 16 16 16 15 15 15 15 15 15 15 15 14 14 14 14 14 13 13 13 13 13
20 20 18 16 16 16 17 17 19 18 18 18 17 18 18 18 18 18 18 18 18 17 17 17 16 16 16 16 16 15 15 15 15 15 14 14 14 14 14 14 14 14 14 13 13 13 13 13 13
20 20 18 17 17 16 15 16 19 18 18 18 18 18 18 18 18 18 18 17 17 17 17 17 16 16 16 15 15 15 15 15 15 14 14 14 14 14 14 14 14 14 13 13 13 13 13 13 13
Wind_Speed
1 2 3 3 5 5 3 2 1 3 4 5 8 9 8 6 4 4 1 7 8 5 5 7 8 9 9 10 10 10 11 11 11 11 12 12 12 12 13 13 13 12 12 12 12 11 11 11 10
1 2 3 4 5 4 2 1 3 4 5 6 7 8 7 5 4 4 3 6 8 7 6 8 8 9 9 10 10 10 11 11 11 12 12 12 12 12 13 13 12 12 12 11 11 11 11 11 11
0 1 3 4 3 4 4 2 3 4 5 4 5 6 5 4 2 2 5 7 7 6 7 8 9 10 10 10 10 10 11 11 11 11 11 11 12 12 12 12 12 11 11 11 11 11 11 11 11
3 4 4 5 5 1 4 4 4 5 5 5 6 6 4 2 2 4 7 8 8 6 7 9 9 10 10 10 10 11 11 11 11 11 11 11 12 12 12 11 11 11 11 10 10 10 10 11 11
3 4 5 4 3 2 3 4 4 5 4 5 7 6 3 3 5 8 9 9 8 5 7 9 10 10 10 10 10 10 11 11 11 11 11 11 11 11 11 10 10 10 10 10 10 10 10 11 11
4 4 4 3 3 3 2 3 5 7 7 6 7 6 2 1 5 6 7 8 8 7 7 8 10 10 10 10 10 10 10 10 10 10 10 10 10 10 10 10 10 10 10 10 9 9 9 10 10
4 4 3 4 4 3 2 3 5 6 6 4 6 6 2 1 3 5 6 7 7 7 7 6 8 8 9 10 10 9 9 9 10 9 9 9 9 9 9 9 9 9 9 9 9 9 9 9 10
5 4 3 2 4 3 2 3 4 5 5 4 4 7 5 4 4 6 6 6 6 6 5 5 6 6 7 7 8 8 8 8 8 8 7 7 7 7 7 7 8 8 8 8 8 8 8 9 10
4 5 2 3 5 3 3 5 4 5 6 3 3 4 6 7 7 7 6 4 4 5 4 5 5 5 6 6 6 6 6 7 6 5 5 5 5 5 5 6 7 7 7 7 7 7 8 8 9
5 4 1 2 5 5 5 5 5 5 6 5 6 6 7 8 8 7 6 5 4 5 5 4 4 4 5 5 5 4 3 4 4 4 4 5 4 4 5 6 6 6 6 6 6 7 7 7 7
4 4 2 3 4 5 5 4 4 7 4 5 9 9 8 8 7 6 5 5 5 5 5 5 5 5 5 3 4 3 2 2 3 4 5 5 4 3 4 4 4 4 4 4 5 7 7 7 6
5 3 4 4 4 5 4 4 4 5 5 8 10 10 8 7 7 6 6 5 4 4 4 5 5 5 5 4 3 3 3 2 2 3 5 6 4 3 3 3 3 4 4 5 5 5 6 6 7
5 3 4 6 6 6 7 5 4 4 6 8 9 9 8 7 5 4 5 4 4 3 3 5 5 5 4 3 2 3 3 3 3 4 6 7 4 3 3 3 4 5 6 5 4 5 5 5 6
5 6 4 5 5 4 7 3 3 4 8 9 9 8 7 7 6 5 4 3 3 3 3 5 5 5 5 3 2 2 3 3 4 4 6 7 6 5 3 3 4 4 6 6 5 5 4 4 5
6 6 4 1 2 3 6 4 1 5 8 9 8 7 7 6 6 6 6 5 4 3 4 5 5 5 5 4 3 3 3 5 4 4 6 7 7 7 5 4 3 4 7 7 6 6 5 5 5
3 4 1 3 3 3 6 2 4 5 8 8 7 6 6 5 5 5 5 5 5 5 5 5 6 5 4 3 3 3 4 5 4 5 6 7 7 8 7 4 3 5 7 6 4 4 4 4 4
1 2 3 3 3 3 5 4 5 5 8 8 7 7 6 5 3 3 4 5 5 6 6 5 5 5 5 4 4 4 4 4 5 6 6 6 8 9 8 5 5 7 5 3 4 4 3 4 3
4 3 3 4 3 4 4 4 5 6 7 8 7 7 7 6 6 5 5 5 5 5 6 6 5 4 5 4 4 4 4 3 4 5 5 7 7 8 8 5 5 6 4 4 3 4 3 3 3
5 4 3 3 4 5 5 4 5 6 6 7 7 8 8 7 5 5 4 5 5 4 5 5 5 5 4 3 3 3 2 2 1 2 5 7 7 7 7 4 4 4 4 4 4 3 4 3 3
4 4 2 1 2 3 3 4 5 6 7 8 10 10 9 7 5 5 4 5 5 5 5 5 5 5 5 4 3 3 3 2 1 1 3 5 6 6 7 5 4 3 4 4 4 3 3 2 2
3 5 5 4 0 1 2 3 4 3 4 4 6 8 9 10 10 8 6 5 5 5 6 6 5 5 5 5 3 3 3 2 2 1 1 1 5 6 7 6 5 4 4 4 3 3 4 2 0
3 4 5 4 2 2 3 3 6 4 4 5 6 6 8 8 9 8 7 6 6 5 5 6 6 5 4 5 5 5 4 3 3 2 2 1 3 5 7 7 6 4 3 3 3 3 2 3 1
5 4 4 3 3 1 1 3 6 2 5 8 8 8 9 9 9 8 8 7 6 6 5 5 6 5 4 5 6 5 4 3 2 2 2 1 1 3 6 6 5 4 3 3 3 3 3 2 3
3 3 4 4 4 2 4 4 5 4 8 8 8 8 9 9 9 8 6 6 5 4 4 5 6 5 4 5 5 6 6 5 4 3 3 2 1 1 3 5 4 4 3 3 3 3 3 2 3
4 5 3 4 3 4 3 3 5 6 6 8 9 9 8 9 9 8 7 6 5 5 5 5 6 5 4 5 5 6 6 6 6 5 4 3 2 1 3 3 3 3 4 4 3 3 3 3 3
3 7 5 3 4 4 2 2 5 4 2 4 6 7 7 8 9 9 9 8 7 6 5 6 6 5 4 5 5 5 5 4 3 4 4 4 4 3 4 4 3 4 4 4 3 3 2 3 3
3 3 5 5 1 1 2 3 4 2 2 3 4 5 6 7 8 8 8 7 7 6 6 6 6 5 4 4 4 4 5 4 4 4 4 3 3 3 4 4 3 3 3 4 4 3 2 3 3
4 4 4 3 2 1 3 3 4 4 4 4 5 6 6 6 7 7 7 7 7 7 6 6 5 5 3 3 4 3 4 4 4 4 3 4 3 3 4 4 3 3 3 3 3 3 2 3 2
1 1 3 3 4 4 2 6 5 8 7 7 6 6 7 7 7 7 6 7 7 6 6 6 5 4 3 3 3 3 3 3 3 3 3 3 3 4 5 5 5 4 4 3 3 3 3 3 2
4 5 5 4 2 3 3 6 4 4 5 6 6 5 6 7 7 6 6 5 5 6 6 6 5 5 5 4 3 3 3 3 3 3 3 3 3 3 5 5 5 5 4 4 4 4 4 4 4
Wind_Direction
133 117 100 75 58 57 65 6 56 58 60 55 73 85 84 65 84 124 187 138 135 137 131 119 114 112 110 107 104 104 103 101 99 97 96 95 95 94 91 89 88 86 84 84 84 81 79 76 75
104 101 73 66 84 83 61 14 64 66 126 120 80 76 77 70 75 104 116 140 133 134 130 124 119 115 112 110 108 104 105 104 103 99 98 98 98 97 94 91 88 86 83 81 82 81 78 76 74
136 124 90 73 91 128 141 170 124 80 97 101 78 57 72 95 91 119 155 142 130 128 127 126 121 117 114 113 112 108 108 107 106 104 102 101 99 98 95 93 90 86 84 81 80 79 77 74 74
72 47 55 71 86 115 143 153 124 96 73 59 91 64 53 68 124 141 141 135 129 129 130 130 126 122 119 118 116 113 112 112 110 108 106 103 100 98 95 95 93 90 86 83 79 76 76 73 72
68 75 63 69 78 81 105 126 115 99 80 75 89 85 46 13 98 126 134 133 130 132 135 133 130 124 120 119 116 112 113 114 113 111 109 108 105 102 100 99 96 91 89 85 81 77 74 72 69
59 70 80 98 106 92 80 105 100 92 103 103 98 102 87 84 108 129 133 134 134 136 132 133 130 127 124 123 121 116 115 114 116 115 113 111 110 106 104 103 100 96 93 88 83 79 75 71 68
102 90 113 134 114 92 111 99 108 115 112 121 121 105 118 147 140 127 121 126 129 129 125 125 131 132 132 129 126 126 122 119 119 122 121 115 113 109 106 103 104 100 97 93 85 80 78 73 71
123 98 89 117 117 118 119 89 101 105 102 107 105 127 157 194 140 113 106 107 118 129 129 136 137 138 142 139 135 135 134 131 128 127 124 121 120 117 111 107 106 103 98 93 84 77 75 74 75
92 80 98 157 145 146 125 96 70 61 84 69 73 126 151 149 120 106 98 93 116 134 145 152 154 157 157 154 149 148 148 147 142 141 139 125 117 119 120 118 110 103 95 90 84 76 71 69 68
84 105 169 169 148 136 108 100 115 87 73 70 76 92 124 127 122 127 135 137 145 161 167 165 171 175 171 160 150 158 158 154 151 150 139 135 128 129 123 120 116 105 94 82 77 66 64 65 62
99 130 134 93 113 115 106 90 98 119 105 151 143 142 140 133 135 146 157 161 169 175 170 166 168 169 165 155 151 151 140 143 142 137 143 137 133 126 107 103 93 83 87 73 60 60 69 75 75
95 93 110 109 104 103 107 105 89 115 161 165 150 146 143 150 159 170 173 174 167 166 169 163 155 152 156 147 149 151 140 142 145 146 141 134 128 116 108 104 97 85 87 80 74 79 82 82 83
95 108 91 104 98 102 96 95 111 121 140 143 135 132 138 148 152 165 171 166 150 149 153 149 150 149 147 138 146 138 146 144 140 130 137 136 132 129 119 111 100 92 92 90 85 81 79 80 81
122 107 94 95 93 105 104 96 97 155 146 144 143 148 153 159 160 152 141 141 148 146 138 140 148 148 140 137 138 140 136 127 120 126 135 137 135 129 115 106 97 94 97 95 91 88 85 81 82
107 97 67 75 145 153 107 58 158 174 147 151 157 157 155 162 155 154 160 165 164 154 138 134 142 141 136 141 144 126 123 115 106 111 125 128 129 126 116 105 98 102 103 98 90 81 80 78 73
82 86 114 264 184 171 122 171 227 183 152 160 163 159 160 172 170 166 162 158 156 144 133 131 135 133 134 133 127 113 115 106 100 103 112 121 124 124 119 112 101 104 101 98 89 75 74 68 69
76 151 196 250 215 165 142 189 214 189 165 171 173 169 167 169 174 179 170 156 151 145 138 132 132 134 134 122 109 105 101 98 102 103 100 107 114 120 121 117 115 111 101 93 94 81 89 87 79
197 188 196 208 207 154 160 200 207 190 176 179 182 179 177 177 188 183 167 152 145 140 139 137 134 131 118 104 91 81 77 74 86 98 104 108 117 122 121 120 119 115 101 85 88 93 78 88 89
177 163 180 214 202 161 179 203 216 201 190 190 191 190 189 194 192 180 163 148 135 138 143 142 139 139 127 117 111 105 107 105 98 101 110 116 121 124 124 121 118 113 111 113 107 104 86 72 84
159 154 172 238 190 161 179 225 224 206 201 197 194 195 195 191 176 186 172 160 148 154 159 142 145 152 151 148 143 148 145 141 136 102 94 117 131 133 131 127 129 122 116 108 105 109 108 99 82
196 189 187 189 180 105 126 309 260 244 217 206 199 193 188 186 183 185 178 172 158 159 166 162 168 168 164 151 127 106 83 68 63 69 86 130 139 135 132 135 135 132 131 135 134 132 132 150 281
233 224 183 169 136 250 175 241 268 226 222 221 211 194 189 189 185 183 180 175 173 176 174 167 172 171 168 151 147 152 156 169 193 184 179 156 135 134 140 141 141 144 143 146 155 145 139 143 163
214 217 182 183 166 274 231 189 281 198 220 230 217 201 193 190 183 181 182 182 178 178 177 172 165 168 166 157 162 162 165 180 173 150 146 141 130 140 148 147 148 153 156 162 155 140 139 142 147
167 69 43 54 77 302 238 175 273 220 214 216 213 204 194 188 182 180 178 168 173 174 169 164 161 165 165 159 160 165 170 169 159 159 163 170 169 163 160 153 151 158 162 170 168 157 148 146 138
91 89 37 1 6 261 239 167 252 246 217 202 196 197 189 181 177 177 175 175 177 175 169 158 154 164 173 167 169 176 177 174 176 179 181 179 177 182 190 167 169 172 175 169 159 155 157 155 146
176 143 155 199 229 270 328 218 257 267 200 171 173 176 173 175 177 178 182 181 180 178 173 164 160 167 179 180 185 181 173 170 184 190 183 186 188 193 189 173 170 175 173 167 153 151 167 159 154
157 192 177 155 210 267 292 288 310 29 87 129 148 151 166 179 179 179 181 179 176 175 174 173 169 173 185 189 187 184 177 172 177 184 181 182 188 187 174 162 162 159 160 161 153 151 168 158 163
163 163 94 116 153 267 294 266 233 218 197 165 156 165 174 172 174 176 177 176 174 174 169 164 163 169 176 184 188 187 182 179 173 165 180 186 191 182 168 168 165 159 158 156 155 158 165 143 158
155 130 123 130 155 161 242 269 231 198 193 183 183 181 179 175 176 178 181 185 175 165 163 164 169 164 166 177 176 163 169 174 169 169 188 198 199 184 184 184 178 174 174 175 169 176 165 159 168
168 178 149 153 231 170 179 266 294 196 187 174 179 184 178 174 172 168 168 168 168 172 176 177 176 176 180 179 172 169 165 162 172 189 204 202 202 198 193 185 187 191 193 193 189 195 187 178 182
Height
1515 1515 1516 1518 1521 1531 1534 1530 1525 1523 1523 1523 1523 1523 1526 1530 1533 1540 1536 1535 1535 1535 1535 1535 1535 1535 1535 1535 1535 1535 1535 1535 1535 1535 1535 1535 1535 1535 1534 1534 1534 1534 1534 1533 1533 1533 1533 1533 1533
1516 1516 1518 1518 1528 1540 1538 1529 1526 1524 1524 1524 1524 1526 1528 1531 1533 1534 1534 1536 1536 1536 1536 1536 1536 1536 1536 1536 1536 1536 1536 1536 1536 1536 1536 1536 1535 1535 1535 1535 1535 1535 1534 1534 1534 1534 1534 1534 1533
1516 1517 1518 1521 1530 1538 1536 1528 1525 1524 1524 1524 1526 1528 1531 1533 1534 1534 1535 1536 1537 1537 1537 1537 1536 1536 1536 1536 1536 1536 1536 1537 1537 1537 1537 1537 1536 1536 1536 1536 1536 1536 1535 1535 1535 1535 1535 1534 1534
1517 1518 1519 1526 1531 1529 1527 1526 1524 1525 1525 1526 1527 1531 1533 1535 1535 1535 1536 1537 1538 1538 1538 1537 1537 1537 1537 1537 1537 1537 1537 1537 1538 1538 1538 1538 1538 1537 1537 1537 1537 1537 1536 1536 1536 1536 1536 1536 1535
1517 1518 1525 1532 1531 1528 1525 1525 1525 1525 1526 1528 1528 1533 1535 1536 1536 1536 1537 1538 1539 1538 1539 1538 1538 1538 1538 1538 1538 1538 1538 1538 1539 1539 1539 1539 1539 1539 1538 1538 1538 1538 1538 1537 1537 1537 1537 1537 1537
1518 1519 1533 1537 1532 1528 1526 1525 1526 1527 1529 1530 1531 1534 1537 1538 1537 1538 1538 1539 1540 1540 1540 1539 1539 1539 1539 1539 1539 1539 1539 1539 1540 1540 1540 1540 1540 1540 1540 1540 1540 1539 1539 1539 1539 1539 1539 1538 1538
1519 1524 1532 1533 1533 1530 1527 1526 1527 1528 1529 1531 1532 1535 1538 1539 1539 1539 1540 1540 1541 1541 1541 1540 1540 1540 1540 1540 1540 1540 1540 1541 1541 1541 1541 1542 1542 1541 1541 1541 1541 1541 1541 1541 1541 1540 1540 1540 1540
1518 1524 1530 1532 1533 1531 1527 1527 1528 1529 1530 1532 1532 1534 1537 1539 1539 1540 1541 1541 1542 1542 1542 1542 1542 1542 1542 1542 1542 1542 1542 1542 1542 1543 1543 1543 1543 1543 1543 1543 1543 1543 1542 1542 1542 1542 1541 1541 1541
1519 1528 1534 1531 1531 1529 1526 1527 1529 1530 1531 1532 1532 1533 1536 1538 1540 1541 1541 1542 1542 1542 1542 1543 1543 1543 1543 1543 1543 1543 1543 1543 1544 1544 1544 1544 1544 1544 1544 1544 1544 1544 1544 1544 1544 1543 1543 1542 1542
1519 1530 1529 1525 1525 1526 1526 1527 1529 1531 1532 1533 1534 1535 1537 1538 1540 1541 1541 1542 1542 1542 1543 1543 1543 1544 1544 1544 1544 1544 1544 1544 1545 1545 1545 1545 1545 1545 1545 1545 1545 1545 1545 1545 1545 1545 1544 1544 1543
1520 1526 1525 1524 1524 1525 1527 1528 1529 1531 1534 1534 1534 1536 1538 1539 1540 1541 1541 1542 1542 1543 1543 1544 1544 1544 1544 1545 1545 1545 1545 1545 1545 1545 1546 1546 1546 1546 1546 1546 1546 1546 1546 1546 1546 1546 1546 1545 1545
1522 1524 1524 1525 1525 1526 1527 1529 1530 1531 1533 1534 1535 1536 1538 1539 1540 1541 1542 1542 1543 1544 1544 1544 1545 1545 1545 1545 1546 1546 1546 1546 1546 1546 1546 1546 1546 1546 1547 1547 1547 1547 1547 1547 1547 1547 1547 1546 1546
1523 1525 1525 1526 1526 1527 1528 1530 1531 1532 1533 1535 1536 1537 1538 1540 1541 1541 1542 1543 1543 1544 1544 1545 1545 1546 1546 1546 1546 1546 1546 1546 1547 1547 1547 1547 1547 1547 1547 1547 1548 1548 1548 1548 1548 1548 1547 1547 1547
1524 1525 1527 1527 1528 1529 1530 1532 1532 1534 1534 1536 1537 1537 1538 1539 1540 1541 1542 1543 1544 1544 1545 1545 1546 1546 1546 1546 1546 1547 1547 1547 1547 1547 1547 1548 1548 1548 1548 1548 1548 1548 1549 1549 1549 1548 1548 1548 1548
1525 1528 1530 1529 1529 1530 1531 1535 1534 1534 1535 1536 1537 1538 1539 1540 1540 1541 1542 1543 1543 1544 1545 1545 1546 1546 1547 1547 1547 1547 1547 1547 1547 1547 1547 1548 1548 1548 1548 1548 1549 1549 1549 1550 1549 1550 1549 1549 1549
1527 1533 1538 1532 1529 1530 1535 1542 1535 1534 1534 1535 1537 1538 1538 1539 1540 1541 1542 1542 1543 1544 1545 1545 1546 1546 1547 1547 1547 1547 1547 1548 1548 1548 1548 1548 1549 1549 1549 1549 1549 1550 1550 1550 1550 1550 1550 1550 1550
1534 1540 1539 1534 1528 1529 1534 1538 1534 1533 1534 1534 1536 1537 1538 1539 1540 1541 1542 1542 1543 1544 1545 1545 1546 1546 1547 1547 1547 1547 1548 1548 1548 1548 1548 1549 1549 1549 1550 1550 1550 1550 1551 1551 1551 1551 1551 1550 1550
1538 1538 1537 1536 1529 1530 1534 1535 1532 1532 1533 1533 1535 1536 1537 1537 1539 1540 1541 1542 1543 1544 1544 1545 1546 1547 1547 1547 1547 1548 1548 1548 1548 1548 1549 1549 1549 1550 1550 1550 1550 1550 1551 1551 1551 1551 1551 1551 1550
1527 1532 1535 1531 1526 1529 1533 1534 1532 1531 1532 1532 1533 1534 1535 1536 1538 1539 1540 1541 1542 1543 1544 1545 1546 1546 1547 1547 1547 1547 1548 1548 1548 1549 1549 1549 1549 1550 1550 1550 1550 1550 1551 1551 1551 1551 1551 1551 1551
1526 1532 1533 1530 1525 1529 1533 1533 1530 1529 1529 1530 1530 1532 1533 1535 1536 1538 1539 1540 1541 1542 1543 1544 1545 1546 1546 1546 1547 1547 1548 1548 1548 1549 1549 1549 1549 1550 1550 1550 1550 1550 1550 1550 1551 1551 1550 1551 1551
1526 1529 1530 1531 1528 1527 1532 1537 1532 1529 1528 1528 1529 1529 1531 1532 1534 1535 1537 1538 1540 1541 1542 1543 1544 1545 1546 1546 1546 1547 1547 1548 1548 1548 1548 1549 1549 1550 1550 1550 1550 1550 1550 1550 1550 1550 1550 1550 1551
1529 1521 1523 1526 1534 1540 1535 1549 1535 1529 1528 1527 1527 1527 1529 1530 1532 1534 1535 1537 1538 1539 1541 1542 1543 1544 1544 1545 1546 1546 1546 1547 1547 1548 1548 1548 1549 1549 1549 1549 1550 1550 1550 1550 1550 1550 1550 1550 1550
1521 1517 1520 1524 1531 1539 1537 1544 1539 1529 1530 1526 1524 1525 1526 1528 1530 1531 1533 1535 1536 1538 1539 1540 1542 1542 1543 1544 1545 1545 1545 1546 1547 1547 1547 1547 1548 1548 1548 1549 1549 1549 1549 1549 1549 1549 1549 1549 1549
1515 1520 1524 1530 1537 1548 1538 1543 1541 1531 1524 1521 1521 1522 1524 1526 1528 1530 1532 1533 1535 1536 1537 1539 1540 1541 1542 1542 1543 1544 1544 1545 1545 1546 1546 1546 1547 1547 1547 1548 1548 1548 1548 1548 1548 1548 1548 1548 1549
1518 1533 1547 1549 1555 1550 1533 1538 1536 1520 1516 1516 1517 1519 1521 1523 1526 1528 1530 1531 1533 1534 1535 1537 1538 1539 1540 1541 1542 1542 1543 1544 1544 1544 1545 1545 1545 1546 1546 1546 1546 1547 1547 1547 1547 1547 1547 1547 1547
1520 1529 1547 1555 1555 1548 1535 1537 1528 1515 1513 1513 1515 1517 1519 1522 1524 1526 1527 1529 1531 1532 1534 1535 1536 1537 1538 1539 1540 1541 1541 1542 1542 1543 1544 1544 1544 1544 1545 1545 1545 1545 1545 1546 1546 1546 1546 1546 1546
1519 1526 1526 1539 1541 1548 1543 1533 1522 1515 1515 1515 1515 1517 1518 1520 1522 1524 1526 1528 1529 1531 1532 1533 1535 1536 1536 1537 1538 1539 1539 1540 1541 1541 1542 1542 1542 1543 1543 1543 1543 1544 1544 1544 1544 1544 1544 1545 1545
1513 1519 1531 1538 1549 1554 1545 1538 1533 1521 1517 1516 1516 1516 1517 1519 1521 1522 1524 1526 1527 1529 1531 1532 1533 1534 1535 1535 1536 1537 1537 1538 1538 1539 1540 1540 1541 1541 1541 1541 1541 1542 1542 1542 1542 1543 1543 1543 1543
1516 1520 1527 1537 1541 1551 1553 1542 1516 1515 1513 1514 1514 1514 1515 1517 1519 1521 1523 1524 1526 1527 1529 1530 1531 1532 1533 1533 1533 1534 1535 1535 1536 1536 1537 1538 1538 1539 1539 1539 1539 1540 1540 1540 1541 1541 1541 1541 1541
1511 1516 1524 1537 1540 1542 1548 1541 1511 1511 1510 1511 1513 1514 1514 1516 1517 1519 1521 1523 1524 1525 1526 1527 1529 1530 1531 1531 1532 1532 1532 1533 1533 1534 1534 1535 1535 1536 1536 1537 1537 1537 1538 1538 1538 1539 1539 1539 1539